Location: Unspecified
(0.0000°N, 0.0000°E)
Time: 20:59:30
(UTC+00:00)

STARLINK-1304 - Visible Passes

Search period start: 12 January 2025 00:00
Search period end: 22 January 2025 00:00
Orbit: 546 x 548 km, 53.1° (Epoch: 12 January)

Date Brightness Start Highest point End Pass type
(mag) Time Alt. Az. Time Alt. Az. Time Alt. Az.
16 Jan 6.1 20:02:39 10° NW 20:03:03 12° NW 20:03:03 12° NW visible
17 Jan 4.3 19:56:21 10° NW 20:00:22 53° SW 20:01:00 47° SSW visible
18 Jan 5.3 19:50:13 10° WNW 19:53:57 33° SW 19:57:42 10° S visible
19 Jan 6.2 19:44:19 10° WNW 19:47:31 22° SW 19:50:44 10° S visible
20 Jan 6.8 19:38:49 10° W 19:41:06 14° SW 19:43:23 10° SSW visible
